OMAA Airport Information

Runway Information
Runway 13L Length 13452 ft width 197 ft
Elevation 62 ft Threshold 0 ft Heading 128
Runway 31R Length 13452 ft Width 197 ft
Elevation 72 ft Threshold 0 ft Heading 308
Runway 13R Length 13452 ft width 148 ft
Elevation 82 ft Threshold 0 ft Heading 128
Runway 31L Length 13452 ft Width 148 ft
Elevation 88 ft Threshold 0 ft Heading 308
Airport Frequencies
Type APP Name RDR Frequency 124.4 MHZ
Type ATIS Name ATIS Frequency 125.1 MHZ
Type TWR Name TWR Frequency 119.2 MHZ
Airport Navaids
Type VOR-DME Name Abu Dhabi Frequency 113000 KHZ
Airport Weather Information & NOTAM
ADDS - METARS form results

(1140 UTC 17 July 2018)
 
METAR text: OMAA 171100Z 30014KT CAVOK 41/20 Q0994 NOSIG
Conditions at: OMAA (ABU DHABI INTL , AE) observed 1100 UTC 17 July 2018
Temperature: 41.0°C (106°F)
Dewpoint: 20.0°C (68°F) [RH = 30%]
Pressure (altimeter): 29.35 inches Hg (994.0 mb)
Winds: from the WNW (300 degrees) at 16 MPH (14 knots; 7.3 m/s)
Visibility: 6 or more miles (10+ km)
Ceiling: ceiling and visibility are OK
Clouds: unknown
Weather: no significant weather observed at this time